• In Czech Republic
  • List of Countries
  • For 7 days
  • Water Temperature
  • Satellite Maps
  • Weather Map
  • Weather Widgets
  • user-avatar
    Login

    Hourly Weather Liverpool

    Today, 24 February, Saturday

    Time Temperature Precipitation Wind Pressure Humidity
    00:00 -2°C° 0.9 mm 6 mps 764 mmHg 85%
    01:00 -1°C° 0.9 mm 6 mps 762 mmHg 88%
    02:00 0°C° 0 mm 4 mps 760 mmHg 91%
    03:00 +1°C° 0.3 mm 4 mps 759 mmHg 93%
    04:00 +1°C° 0.3 mm 4 mps 758 mmHg 95%
    05:00 +3°C° 0.3 mm 4 mps 757 mmHg 97%
    06:00 +2°C° 0 mm 5 mps 757 mmHg 96%
    07:00 +3°C° 0 mm 6 mps 756 mmHg 94%
    08:00 +3°C° 0 mm 6 mps 756 mmHg 92%
    09:00 +4°C° 0 mm 7 mps 756 mmHg 85%
    10:00 +5°C° 0 mm 7 mps 757 mmHg 78%
    11:00 +6°C° 0 mm 7 mps 757 mmHg 71%
    12:00 +6°C° 0 mm 7 mps 757 mmHg 68%
    13:00 +6°C° 0 mm 7 mps 757 mmHg 65%
    14:00 +6°C° 0 mm 7 mps 757 mmHg 63%
    15:00 +5°C° 0 mm 7 mps 758 mmHg 64%
    16:00 +4°C° 0 mm 6 mps 759 mmHg 66%
    17:00 +3°C° 0 mm 6 mps 759 mmHg 68%
    18:00 +2°C° 0 mm 6 mps 760 mmHg 71%
    19:00 +1°C° 0 mm 6 mps 761 mmHg 75%
    20:00 -2°C° 0 mm 6 mps 762 mmHg 79%
    21:00 -2°C° 0 mm 7 mps 763 mmHg 77%
    22:00 -3°C° 0 mm 7 mps 764 mmHg 74%
    23:00 -3°C° 0 mm 7 mps 765 mmHg 72%

    Tomorrow, 25 February, Sunday

    Time Temperature Precipitation Wind Pressure Humidity
    00:00 -4°C° 0 mm 6 mps 766 mmHg 73%
    01:00 -5°C° 0 mm 6 mps 767 mmHg 73%
    02:00 -6°C° 0 mm 6 mps 767 mmHg 73%
    03:00 -7°C° 0 mm 5 mps 768 mmHg 73%
    04:00 -7°C° 0 mm 5 mps 768 mmHg 73%
    05:00 -8°C° 0 mm 5 mps 768 mmHg 73%
    06:00 -8°C° 0 mm 5 mps 769 mmHg 71%
    07:00 -7°C° 0 mm 5 mps 769 mmHg 68%
    08:00 -7°C° 0 mm 5 mps 770 mmHg 66%
    09:00 -6°C° 0 mm 5 mps 770 mmHg 61%
    10:00 -5°C° 0 mm 5 mps 769 mmHg 57%
    11:00 -2°C° 0 mm 5 mps 769 mmHg 52%
    12:00 -2°C° 0 mm 5 mps 769 mmHg 52%
    13:00 -3°C° 0 mm 6 mps 769 mmHg 52%
    14:00 -2°C° 0 mm 6 mps 768 mmHg 52%
    15:00 -2°C° 0 mm 6 mps 768 mmHg 56%
    16:00 -3°C° 0 mm 6 mps 767 mmHg 61%
    17:00 -3°C° 0 mm 7 mps 766 mmHg 65%
    18:00 -3°C° 0.2 mm 7 mps 766 mmHg 71%
    19:00 -3°C° 0.2 mm 7 mps 766 mmHg 76%
    20:00 -3°C° 0.2 mm 7 mps 765 mmHg 81%
    21:00 -2°C° 0.4 mm 8 mps 764 mmHg 83%
    22:00 -2°C° 0.4 mm 8 mps 763 mmHg 85%
    23:00 -1°C° 0.4 mm 9 mps 762 mmHg 86%

    Day after tomorrow, 26 February, Monday

    Time Temperature Precipitation Wind Pressure Humidity
    00:00 0°C° 0.5 mm 9 mps 761 mmHg 88%
    01:00 0°C° 0.5 mm 9 mps 760 mmHg 90%
    02:00 +1°C° 0.5 mm 9 mps 759 mmHg 91%
    03:00 +1°C° 0.3 mm 9 mps 758 mmHg 92%
    04:00 +2°C° 0.3 mm 8 mps 758 mmHg 93%
    05:00 +2°C° 0.3 mm 8 mps 757 mmHg 94%
    06:00 +3°C° 0.1 mm 7 mps 757 mmHg 95%
    07:00 +3°C° 0.1 mm 6 mps 756 mmHg 96%
    08:00 +3°C° 0.1 mm 5 mps 756 mmHg 97%
    09:00 +5°C° 0.1 mm 4 mps 756 mmHg 97%
    10:00 +5°C° 0.1 mm 3 mps 756 mmHg 97%
    11:00 +6°C° 0.1 mm 2 mps 756 mmHg 98%
    12:00 +7°C° 0 mm 3 mps 756 mmHg 94%
    13:00 +7°C° 0 mm 4 mps 755 mmHg 90%
    14:00 +8°C° 0 mm 5 mps 755 mmHg 86%
    15:00 +7°C° 0 mm 5 mps 755 mmHg 82%
    16:00 +6°C° 0 mm 5 mps 756 mmHg 79%
    17:00 +5°C° 0 mm 5 mps 756 mmHg 76%
    18:00 +2°C° 0 mm 6 mps 756 mmHg 79%
    19:00 +1°C° 0 mm 6 mps 757 mmHg 82%
    20:00 -1°C° 0 mm 7 mps 757 mmHg 85%
    21:00 -1°C° 0 mm 6 mps 758 mmHg 86%
    22:00 -2°C° 0 mm 6 mps 758 mmHg 88%
    23:00 -1°C° 0 mm 5 mps 758 mmHg 89%

    27 February, Tuesday

    Time Temperature Precipitation Wind Pressure Humidity
    00:00 -2°C° 0 mm 5 mps 758 mmHg 89%
    01:00 -2°C° 0 mm 5 mps 758 mmHg 88%
    02:00 -4°C° 0 mm 5 mps 759 mmHg 88%
    03:00 -4°C° 0 mm 5 mps 759 mmHg 88%
    04:00 -4°C° 0 mm 5 mps 759 mmHg 87%
    05:00 -5°C° 0 mm 5 mps 759 mmHg 87%
    06:00 -4°C° 0 mm 5 mps 760 mmHg 85%
    07:00 -4°C° 0 mm 6 mps 761 mmHg 84%
    08:00 -4°C° 0 mm 6 mps 761 mmHg 82%
    09:00 -2°C° 0 mm 6 mps 762 mmHg 74%
    10:00 -1°C° 0 mm 6 mps 762 mmHg 67%
    11:00 +2°C° 0 mm 6 mps 762 mmHg 60%
    12:00 +2°C° 0 mm 6 mps 762 mmHg 57%
    13:00 +3°C° 0 mm 6 mps 762 mmHg 55%
    14:00 +3°C° 0 mm 7 mps 762 mmHg 53%
    15:00 +2°C° 0 mm 7 mps 762 mmHg 56%
    16:00 +2°C° 0 mm 6 mps 762 mmHg 58%
    17:00 +1°C° 0 mm 6 mps 762 mmHg 61%
    18:00 -1°C° 0 mm 6 mps 763 mmHg 67%
    19:00 -2°C° 0 mm 6 mps 763 mmHg 74%
    20:00 -3°C° 0 mm 6 mps 763 mmHg 81%
    21:00 -2°C° 0 mm 5 mps 763 mmHg 83%
    22:00 -4°C° 0 mm 5 mps 763 mmHg 85%
    23:00 -4°C° 0 mm 5 mps 763 mmHg 87%

    28 February, Wednesday

    Time Temperature Precipitation Wind Pressure Humidity
    00:00 -3°C° 0 mm 4 mps 763 mmHg 89%
    01:00 -3°C° 0 mm 4 mps 763 mmHg 90%
    02:00 -3°C° 0 mm 4 mps 762 mmHg 92%
    03:00 -3°C° 0 mm 4 mps 762 mmHg 92%
    04:00 -3°C° 0 mm 4 mps 762 mmHg 92%
    05:00 -2°C° 0 mm 4 mps 761 mmHg 93%
    06:00 -1°C° 0 mm 5 mps 761 mmHg 90%
    07:00 -1°C° 0 mm 6 mps 761 mmHg 87%
    08:00 +1°C° 0 mm 6 mps 760 mmHg 84%
    09:00 +3°C° 0 mm 6 mps 760 mmHg 77%
    10:00 +5°C° 0 mm 7 mps 759 mmHg 70%
    11:00 +8°C° 0 mm 7 mps 759 mmHg 63%
    12:00 +9°C° 0 mm 8 mps 758 mmHg 61%
    13:00 +9°C° 0 mm 8 mps 758 mmHg 60%
    14:00 +10°C° 0 mm 8 mps 757 mmHg 58%
    15:00 +9°C° 0 mm 8 mps 757 mmHg 63%
    16:00 +7°C° 0 mm 8 mps 757 mmHg 67%
    17:00 +6°C° 0 mm 7 mps 757 mmHg 72%
    18:00 +5°C° 0 mm 6 mps 757 mmHg 79%
    19:00 +3°C° 0 mm 6 mps 757 mmHg 87%
    20:00 +2°C° 0 mm 5 mps 758 mmHg 94%
    21:00 +1°C° 0.1 mm 4 mps 758 mmHg 95%
    22:00 +1°C° 0.1 mm 4 mps 758 mmHg 95%
    23:00 +1°C° 0.1 mm 3 mps 758 mmHg 96%

    1 March, Thursday

    Time Temperature Precipitation Wind Pressure Humidity
    00:00 +1°C° 0 mm 3 mps 758 mmHg 94%
    01:00 +1°C° 0 mm 3 mps 759 mmHg 93%
    02:00 0°C° 0 mm 3 mps 759 mmHg 91%
    03:00 0°C° 0 mm 3 mps 759 mmHg 93%
    04:00 -1°C° 0 mm 3 mps 760 mmHg 94%
    05:00 -3°C° 0 mm 4 mps 760 mmHg 96%
    06:00 -2°C° 0 mm 4 mps 760 mmHg 93%
    07:00 -2°C° 0 mm 4 mps 761 mmHg 91%
    08:00 -2°C° 0 mm 4 mps 761 mmHg 89%
    09:00 -1°C° 0 mm 4 mps 762 mmHg 81%
    10:00 +1°C° 0 mm 4 mps 762 mmHg 73%
    11:00 +3°C° 0 mm 4 mps 762 mmHg 65%
    12:00 +4°C° 0 mm 4 mps 762 mmHg 62%
    13:00 +5°C° 0 mm 4 mps 762 mmHg 59%
    14:00 +5°C° 0 mm 4 mps 762 mmHg 55%
    15:00 +5°C° 0 mm 4 mps 762 mmHg 59%
    16:00 +3°C° 0 mm 5 mps 762 mmHg 62%
    17:00 +2°C° 0 mm 5 mps 762 mmHg 65%
    18:00 +1°C° 0 mm 5 mps 762 mmHg 70%
    19:00 -1°C° 0 mm 6 mps 762 mmHg 76%
    20:00 -2°C° 0 mm 6 mps 762 mmHg 82%
    21:00 -2°C° 0 mm 7 mps 761 mmHg 81%
    22:00 -2°C° 0 mm 7 mps 761 mmHg 80%
    23:00 -2°C° 0 mm 8 mps 761 mmHg 80%
    Show more